User: anonymous
Location: Unspecified
(0.0000°N, 0.0000°E)
Time: 19:57:30
(UTC+00:00)
Language:

CANX 3B (BRITE-ASRA) - Orbit

View from above orbital plane
View from above orbital plane
View from above satellite
View from above satellite

Ground track
Ground track

The orbit data is extracted from the following two-line orbital elements,

1 39091U 13009F   14293.47095154  .00000273  00000-0  11214-3 0  5034
2 39091 098.6135 127.7935 0009546 306.7309 053.2998 14.34743655 86284
Epoch (UTC): 20 October 2014 11:18:10
Eccentricity: 0.0009546
inclination: 98.6135°
perigee height: 769 km
apogee height: 783 km
right ascension of ascending node: 127.7935°
argument of perigee: 306.7309°
revolutions per day: 14.34743655
mean anomaly at epoch: 53.2998°
orbit number at epoch: 8628

The dashed part of the orbit path shows where the satellite is in the earth's shadow,  

DLR